Terminal Aerodrome Forecast
Issued by NWS Cleveland, OH

Home | Current Version | Previous Version | Graphics & Text | Print | Product List | Glossary On
Versions: 1 2 3 4 5 6 7 8 9 10 11 12 13 14 15 16 17 18 19 20 21 22 23 24 25 26 27 28 29 30
000
FTUS41 KCLE 240500
TAFTOL
TAF
KTOL 240520Z 2406/2506 24006KT P6SM OVC015
     FM241600 26010KT 6SM -DZ BR OVC015
     FM250500 27010KT 4SM -SN BR OVC005=

USA.gov is the U.S. government's official web portal to all federal, state and local government web resources and services.